Pagina principale
METAR-TAF:

METAR-TAF

Aeroporti :

Brookhaven Airport

Shirley, New York, Stati Uniti

latitudine: 40-49-18N, longitudine: 072-52-08W, altezza: 25 m

Osservazione

Il bollettino è stato emesso 29 minuti fa, alle 07:56 UTC
Vento calmo
Temperature 22°C
Umidità 100%
Pressione 1015 hPa
Visibilità: 12.9 km
Cielo sereno

METAR: KHWV 160756Z AUTO 00000KT 8SM CLR 22/22 A2998 RMK AO2 SLP150 T02220222 $

Ora: 04:25 (08:25 UTC)


TAF: mancante

Osservazioni e previsioni meteorologiche di più di 4000 aeroporti (messaggi METAR e TAF).

Le stazioni disponibili sono rappresentate dai dischi gialli e rossi sulla carta.

Puntare il mouse per vedere il nome della stazione.

Clicca sopra per visualizzare le osservazioni e previsioni meteorologiche.

Per cambiare la mappa : fare clic sui pulsanti verdi con una croce nera per ingrandire, il pulsante verde con un trattino per diminuire, o sulla freccia verde per le mappe adiacenti.


METAR-TAF: